Flag for U.S.A. Weather past 2 weeks in Cedar Rapids, Iowa, U.S.A.

Now
55 °F

Passing clouds.


Feels Like: 52 °F
Forecast: 51 / 75 °F
Wind: 9 mph from South

Location: Cedar Rapids Municipal Airport


UV Index: 0 (Low)

Visibility: 10 mi


Pressure: 30.09 "Hg

Humidity: 59%

Dew point: 41 °F

Location of Cedar RapidsLocation

Historic Weather in Cedar Rapids

°F

Cedar Rapids temperature yesterday

Maximum temperature yesterday: 74 °F (at 3:52 PM)
Minimum temperature yesterday: 37 °F (at 5:52 AM)
Average temperature yesterday: 56 °F

Past Weeks' High & Low Weather Summary

 TemperatureHumidityPressure
High83 °F (Apr 12, 4:52 PM)100% (Apr 13, 4:52 PM)30.38 "Hg (Apr 13, 4:52 PM)
Low24 °F (Apr 5, 5:52 AM)15% (Apr 10, 12:52 PM)29.43 "Hg (Apr 13, 4:52 PM)
Average48 °F54%29.96 "Hg
* Reported Apr 5 3:52 AM — Apr 20 3:52 AM, Cedar Rapids, Weather by CustomWeather, © 2014

Note: Actual official high and low records may vary slightly from our data, if they occured in-between our weather recording intervals... More about our weather records

Advertising

Historic Weather Conditions — Data for Previous 24 hours

 ConditionsComfort  
Time TempWeatherWind HumidityBarometerVisibility
3:52 AM
Apr 20
57 °FPassing clouds.10 mph55%30.09 "Hg10 mi
2:52 AM57 °FPassing clouds.12 mph53%30.09 "Hg10 mi
1:52 AM56 °FPassing clouds.10 mph53%30.10 "Hg10 mi
12:52 AM56 °FPassing clouds.8 mph51%30.11 "Hg10 mi
11:52 PM
Apr 19
58 °FPassing clouds.7 mph51%30.11 "Hg10 mi
10:52 PM58 °FPassing clouds.8 mph54%30.11 "Hg10 mi
9:52 PM62 °FClear.8 mph46%30.11 "Hg10 mi
8:52 PM63 °FClear.9 mph45%30.10 "Hg10 mi
7:52 PM67 °FSunny.8 mph39%30.09 "Hg10 mi
6:52 PM70 °FSunny.14 mph35%30.08 "Hg10 mi
5:52 PM71 °FSunny.16 mph31%30.09 "Hg10 mi
4:52 PM73 °FSunny.18 mph30%30.09 "Hg10 mi
3:52 PM74 °FSunny.22 mph29%30.11 "Hg10 mi
2:52 PM72 °FSunny.16 mph31%30.13 "Hg10 mi
1:52 PM70 °FSunny.18 mph31%30.16 "Hg10 mi
12:52 PM67 °FSunny.15 mph31%30.19 "Hg10 mi
11:52 AM61 °FSunny.17 mph32%30.22 "Hg10 mi
10:52 AM56 °FSunny.15 mph33%30.26 "Hg10 mi
9:52 AM50 °FSunny.16 mph39%30.27 "Hg10 mi
8:52 AM44 °FSunny.17 mph51%30.28 "Hg10 mi
7:52 AM40 °FSunny.14 mph68%30.29 "Hg8 mi
6:52 AM37 °FClear.12 mph76%30.27 "Hg6 mi
5:52 AM37 °FClear.12 mph79%30.25 "Hg8 mi
Weather by CustomWeather, © 2014

See weather overview